Weather History for Fredericksburg, TX

Change the Weather History Date:

Wednesday, September 18, 2013

  Actual Average (KSAT) Record (KSAT)
Temperature  
Mean Temperature 80 °F 79 °F  
Max Temperature 90 °F 90 °F 97 °F (1997)
Min Temperature 70 °F 68 °F 50 °F (1903)
Degree Days  
Heating Degree Days 0 0  
Month to date heating degree days 0  
Since 1 July heating degree days 0  
Cooling Degree Days 15 14  
Month to date cooling degree days 296  
Year to date cooling degree days 2687  
Growing Degree Days 30 (Base 50)    
Moisture  
Dew Point 67 °F    
Average Humidity 71    
Maximum Humidity 94    
Minimum Humidity 39    
Precipitation  
Precipitation 0.01 in 0.10 in 2.43 in (1983)
Month to date precipitation 1.89  
Year to date precipitation 22.83  
Snow  
Snow 0.00 in - - ()
Month to date snowfall  
Since 1 July snowfall  
Since 1 September snowfall  
Snow Depth -    
Sea Level Pressure  
Sea Level Pressure 30.01 in    
Wind  
Wind Speed 4 mph (SSE)    
Max Wind Speed 13 mph    
Max Gust Speed 21 mph    
Visibility 10 miles    
Events      
T = Trace of Precipitation, MM = Missing Value Source: NWS Daily Summary

Daily Weather History Graph

Daily Weather History Graph

Search for Another Location

Airport:

Trip Planner

Search our weather history database for the weather conditions in past years. The results will help you decide how hot, cold, wet, or windy it might be!

Date:

Astronomy

Sep. 18, 2013 Rise Set
Actual Time 7:21 AM CDT 7:36 PM CDT
Civil Twilight 6:57 AM CDT 8:00 PM CDT
Nautical Twilight 6:29 AM CDT 8:28 PM CDT
Astronomical Twilight 6:01 AM CDT 8:57 PM CDT
Moon 7:02 PM CDT (9/18) 6:27 AM CDT (9/18)
Length of Visible Light 13h 02m
Length of Day
12h 14m
Waxing Gibbous, 99% of the Moon is Illuminated
Sep 18
Waxing Gibbous
Sep 19
Full
Sep 26
Last Quarter
Oct 4
New
Oct 11
First Quarter

Hourly Weather History & Observations

Time (CDT) Temp. Heat Index Dew Point Humidity Pressure Visibility Wind Dir Wind Speed Gust Speed Precip Events Conditions
12:15 AM 73.9 °F - 68.0 °F 82% 30.07 in 10.0 mi Calm Calm - N/A   Clear
12:35 AM 73.4 °F - 68.0 °F 83% 30.07 in 10.0 mi SE 3.5 mph - N/A   Clear
12:55 AM 73.4 °F - 68.0 °F 83% 30.06 in 10.0 mi SSE 3.5 mph - N/A   Clear
1:15 AM 72.7 °F - 68.0 °F 85% 30.06 in 10.0 mi Calm Calm - N/A   Clear
1:35 AM 72.7 °F - 68.0 °F 85% 30.06 in 10.0 mi Calm Calm - N/A   Clear
1:55 AM 72.9 °F - 68.5 °F 86% 30.06 in 10.0 mi South 3.5 mph - N/A   Clear
2:15 AM 72.0 °F - 68.2 °F 88% 30.06 in 10.0 mi Calm Calm - N/A   Clear
2:35 AM 71.8 °F - 68.2 °F 88% 30.05 in 10.0 mi Calm Calm - N/A   Clear
2:55 AM 71.6 °F - 68.4 °F 89% 30.05 in 10.0 mi Calm Calm - N/A   Clear
3:15 AM 71.1 °F - 68.2 °F 91% 30.04 in 10.0 mi Calm Calm - N/A   Clear
3:35 AM 70.7 °F - 68.0 °F 91% 30.04 in 10.0 mi Calm Calm - N/A   Clear
3:55 AM 70.5 °F - 68.2 °F 92% 30.03 in 10.0 mi Calm Calm - N/A   Clear
4:15 AM 70.2 °F - 68.0 °F 93% 30.02 in 10.0 mi Calm Calm - N/A   Clear
4:35 AM 70.5 °F - 68.2 °F 92% 30.02 in 10.0 mi Calm Calm - N/A   Clear
4:55 AM 70.5 °F - 68.4 °F 93% 30.01 in 10.0 mi SSW 3.5 mph - N/A   Clear
5:15 AM 70.0 °F - 68.0 °F 93% 30.01 in 10.0 mi Calm Calm - N/A   Scattered Clouds
5:35 AM 70.7 °F - 68.7 °F 93% 30.01 in 10.0 mi Calm Calm - N/A   Clear
5:55 AM 70.7 °F - 68.9 °F 94% 30.01 in 7.0 mi Calm Calm - N/A   Scattered Clouds
6:15 AM 71.1 °F - 69.3 °F 94% 30.01 in 7.0 mi South 3.5 mph - N/A   Overcast
6:35 AM 71.8 °F - 69.8 °F 93% 30.02 in 7.0 mi South 4.6 mph - N/A   Overcast
6:55 AM 71.8 °F - 69.8 °F 93% 30.02 in 7.0 mi South 4.6 mph - N/A   Overcast
7:15 AM 71.8 °F - 69.4 °F 92% 30.02 in 7.0 mi Calm Calm - N/A   Overcast
7:35 AM 72.0 °F - 69.8 °F 93% 30.03 in 5.0 mi Calm Calm - N/A   Overcast
7:55 AM 72.1 °F - 69.8 °F 92% 30.04 in 7.0 mi Calm Calm - N/A   Overcast
8:15 AM 72.5 °F - 70.0 °F 92% 30.04 in 7.0 mi Calm Calm - N/A   Overcast
8:35 AM 73.0 °F - 70.2 °F 91% 30.05 in 7.0 mi Calm Calm - N/A   Overcast
8:55 AM 73.6 °F - 70.3 °F 90% 30.05 in 10.0 mi Calm Calm - N/A   Overcast
9:15 AM 74.5 °F - 70.3 °F 87% 30.06 in 10.0 mi SE 5.8 mph - N/A   Mostly Cloudy
9:35 AM 75.4 °F - 69.3 °F 81% 30.06 in 10.0 mi SE 5.8 mph - N/A   Scattered Clouds
9:55 AM 75.9 °F - 68.5 °F 78% 30.06 in 10.0 mi SE 5.8 mph - N/A   Scattered Clouds
10:15 AM 76.1 °F - 68.0 °F 76% 30.06 in 10.0 mi SSE 5.8 mph - N/A   Scattered Clouds
10:35 AM 77.2 °F - 67.6 °F 72% 30.06 in 10.0 mi ESE 6.9 mph - N/A   Scattered Clouds
10:55 AM 78.4 °F - 67.5 °F 69% 30.07 in 10.0 mi South 8.1 mph - N/A   Scattered Clouds
11:15 AM 79.3 °F - 66.6 °F 65% 30.06 in 10.0 mi SE 6.9 mph - N/A   Scattered Clouds
11:35 AM 80.8 °F 82.9 °F 66.4 °F 61% 30.06 in 10.0 mi SE 9.2 mph - N/A   Mostly Cloudy
11:55 AM 82.0 °F 84.3 °F 66.4 °F 59% 30.05 in 10.0 mi South 11.5 mph - N/A   Mostly Cloudy
12:15 PM 82.0 °F 83.8 °F 65.1 °F 56% 30.05 in 10.0 mi South 11.5 mph 16.1 mph N/A   Mostly Cloudy
12:35 PM 82.4 °F 83.9 °F 64.0 °F 54% 30.05 in 10.0 mi ESE 6.9 mph - N/A   Mostly Cloudy
12:55 PM 83.3 °F 84.8 °F 64.4 °F 53% 30.04 in 10.0 mi SE 8.1 mph - N/A   Mostly Cloudy
1:15 PM 83.1 °F 84.4 °F 64.0 °F 52% 30.02 in 10.0 mi SE 8.1 mph - N/A   Scattered Clouds
1:35 PM 84.0 °F 85.2 °F 63.5 °F 50% 30.02 in 10.0 mi SSE 8.1 mph - N/A   Scattered Clouds
1:55 PM 86.0 °F 86.8 °F 63.0 °F 46% 30.01 in 10.0 mi South 9.2 mph - N/A   Scattered Clouds
2:15 PM 85.5 °F 86.3 °F 63.3 °F 47% 30.00 in 10.0 mi SE 9.2 mph - N/A   Mostly Cloudy
2:35 PM 88.0 °F 88.4 °F 62.4 °F 42% 29.99 in 10.0 mi SSE 10.4 mph 16.1 mph N/A   Mostly Cloudy
2:55 PM 87.4 °F 88.2 °F 62.8 °F 44% 29.98 in 10.0 mi SSE 8.1 mph - N/A   Mostly Cloudy
3:15 PM 88.2 °F 88.7 °F 62.2 °F 42% 29.97 in 10.0 mi SSE 9.2 mph 18.4 mph N/A   Scattered Clouds
3:35 PM 90.1 °F 90.6 °F 62.1 °F 39% 29.97 in 10.0 mi South 9.2 mph - N/A   Mostly Cloudy
3:55 PM 86.9 °F 86.7 °F 60.4 °F 41% 29.97 in 10.0 mi SSE 9.2 mph 19.6 mph N/A   Mostly Cloudy
4:15 PM 87.6 °F 87.2 °F 59.9 °F 39% 29.96 in 10.0 mi South 10.4 mph 20.7 mph N/A   Scattered Clouds
4:35 PM 88.0 °F 87.6 °F 60.1 °F 39% 29.95 in 10.0 mi South 11.5 mph - N/A   Clear
4:55 PM 86.5 °F 86.3 °F 60.3 °F 41% 29.95 in 10.0 mi South 10.4 mph - N/A   Clear
5:15 PM 86.2 °F 86.3 °F 61.3 °F 43% 29.94 in 10.0 mi South 5.8 mph 9.2 mph N/A   Clear
5:35 PM 86.0 °F 86.3 °F 61.7 °F 44% 29.94 in 10.0 mi South 6.9 mph - N/A   Clear
5:55 PM 85.8 °F 86.1 °F 61.7 °F 44% 29.94 in 10.0 mi SSE 6.9 mph - N/A   Clear
6:15 PM 85.6 °F 86.1 °F 62.1 °F 45% 29.94 in 10.0 mi SE 6.9 mph - N/A   Clear
6:35 PM 85.8 °F 86.3 °F 62.1 °F 45% 29.94 in 10.0 mi SSE 8.1 mph - N/A   Mostly Cloudy
6:55 PM 84.7 °F 85.4 °F 62.2 °F 47% 29.94 in 10.0 mi SE 5.8 mph - N/A   Overcast
7:15 PM 82.2 °F 84.2 °F 65.8 °F 57% 29.95 in 10.0 mi South 12.7 mph - N/A   Overcast
7:35 PM 81.3 °F 83.8 °F 67.1 °F 62% 29.95 in 10.0 mi South 8.1 mph - N/A   Overcast
7:55 PM 80.4 °F 82.8 °F 67.3 °F 64% 29.95 in 10.0 mi SSE 6.9 mph - N/A   Mostly Cloudy
8:15 PM 79.7 °F - 68.0 °F 67% 29.96 in 10.0 mi South 8.1 mph - N/A   Overcast
8:35 PM 79.2 °F - 68.0 °F 69% 29.97 in 10.0 mi South 5.8 mph - N/A   Overcast
8:55 PM 78.8 °F - 68.0 °F 69% 29.98 in 10.0 mi South 5.8 mph - N/A   Overcast
9:15 PM 78.1 °F - 68.0 °F 71% 29.98 in 10.0 mi SSE 8.1 mph - N/A   Overcast
9:35 PM 77.5 °F - 67.6 °F 71% 29.99 in 10.0 mi South 5.8 mph - N/A   Overcast
9:55 PM 76.6 °F - 67.5 °F 73% 29.99 in 10.0 mi South 3.5 mph - N/A   Mostly Cloudy
10:15 PM 76.1 °F - 68.0 °F 76% 30.01 in 10.0 mi South 5.8 mph - N/A   Scattered Clouds
10:35 PM 75.7 °F - 68.2 °F 77% 30.01 in 10.0 mi South 3.5 mph - N/A   Scattered Clouds
10:55 PM 75.2 °F - 68.2 °F 79% 30.01 in 10.0 mi SSE 3.5 mph - N/A   Scattered Clouds
11:15 PM 74.8 °F - 68.2 °F 80% 30.01 in 10.0 mi Calm Calm - N/A   Scattered Clouds
11:35 PM 74.5 °F - 68.0 °F 80% 30.01 in 10.0 mi SSE 3.5 mph - N/A   Scattered Clouds
11:55 PM 73.9 °F - 67.8 °F 81% 30.01 in 10.0 mi Calm Calm - N/A   Clear